[[{"header":{"parameterUnit":"m.s-1","parameterCategory":1,"la1":30.2991,"la2":30.254,"lo1":-89.0895,"lo2":-89.0444,"dx":0.0017,"dy":0.0017,"nx":28,"ny":28,"refTime":"2022-12-07T03:00:00:Z","depth":0,"parameterNumber":2,"parameterNumberName":"U-component_of_WINDS"},"data":[0,0,0,0,0,0,0,0,0,0,0,0,0,0,0,0,0,0,0,0,0,0,0,0,0,0,0,0,0,0,0,0,0,0,0,0,0,0,0,0,0,0,0,0,0,0,0,0,0,0,0,0,0,0,0,0,0,0,-1.2399,-1.2399,0,-1.2375,-1.2375,-1.2375,-1.2361,-1.2361,-1.2361,-1.2361,-1.2337,-1.2336,-1.2336,0,0,0,0,0,0,0,0,0,0,0,0,0,-1.2432,-1.2432,-1.2399,-1.2399,-1.2398,-1.2376,-1.2375,-1.2375,-1.2361,-1.2361,-1.2361,-1.2361,-1.2337,-1.2336,-1.2336,0,0,0,0,0,0,0,0,0,0,0,0,0,-1.2414,-1.2431,-1.2399,-1.2389,-1.2387,-1.2376,-1.2375,-1.2375,-1.2361,-1.2361,-1.2361,-1.2361,-1.2337,-1.2336,-1.2336,-1.2332,0,0,-1.2333,-1.2333,0,0,0,0,0,0,0,0,-1.2415,-1.2413,-1.239,-1.2389,-1.2388,-1.2371,-1.2378,-1.2361,-1.2361,-1.2371,-1.2361,-1.2361,-1.2348,-1.2347,-1.2342,-1.2331,-1.233,-1.2333,-1.2332,-1.2332,-1.2332,0,0,0,0,0,0,0,-1.2416,-1.2414,-1.239,-1.239,-1.2389,-1.2385,-1.2383,-1.2375,-1.236,-1.237,-1.2369,-1.2366,-1.2348,-1.2343,-1.2342,-1.233,-1.2333,-1.2332,-1.2332,-1.2331,-1.2315,-1.2315,0,0,0,0,0,0,-1.2419,-1.2415,-1.239,-1.2389,-1.2402,-1.2385,-1.2382,-1.2377,-1.2361,-1.2358,-1.2367,-1.2366,-1.2345,-1.2343,-1.2341,-1.2336,-1.2332,-1.2331,-1.2331,-1.2315,-1.2315,-1.2315,0,0,0,0,0,0,-1.242,-1.2417,-1.2391,-1.2402,-1.2398,-1.2384,-1.2379,-1.2376,-1.2372,-1.2358,-1.2355,-1.2365,-1.2345,-1.2342,-1.2335,-1.2335,-1.2331,-1.233,-1.2315,-1.2315,-1.2315,-1.2326,0,0,0,0,0,0,-1.2421,-1.2418,-1.2416,-1.2402,-1.2398,-1.2385,-1.2379,-1.2376,-1.237,-1.2369,-1.2355,-1.2353,-1.2344,-1.2336,-1.2334,-1.2334,-1.2329,-1.2315,-1.2315,-1.2315,-1.2325,-1.2326,-1.2327,0,0,0,0,0,-1.2422,-1.242,-1.2416,-1.2413,-1.2395,-1.2385,-1.2383,-1.2373,-1.237,-1.2369,-1.236,-1.2353,-1.2335,-1.2335,-1.2333,-1.2332,-1.2315,-1.2315,-1.2315,-1.2325,-1.2326,-1.2327,0,0,0,0,0,0,-1.2435,-1.2418,-1.2413,-1.2406,-1.2397,-1.2383,-1.2381,-1.2375,-1.2366,-1.2366,-1.2354,-1.2351,-1.2344,-1.2338,-1.2338,-1.2328,-1.2324,-1.2324,-1.2333,-1.2334,-1.2335,-1.2336,-1.2329,0,0,0,0,0,-1.2437,-1.243,-1.2416,-1.2411,-1.2407,-1.2394,-1.239,-1.2383,-1.2373,-1.2369,-1.236,-1.2351,-1.2343,-1.2338,-1.233,-1.2325,-1.2322,-1.2323,-1.2324,-1.2325,-1.2325,-1.2321,-1.2322,-1.2316,-1.2316,-1.2316,0,0,-1.244,-1.243,-1.2427,-1.2413,-1.2405,-1.2399,-1.2391,-1.2384,-1.2379,-1.2368,-1.236,-1.2353,-1.2343,-1.2336,-1.2333,-1.233,-1.2326,-1.2325,-1.2326,-1.2325,-1.2321,-1.2322,-1.2323,-1.2316,-1.2316,-1.2316,0,0,-1.2444,-1.2436,-1.2431,-1.2423,-1.2412,-1.2404,-1.2403,-1.2389,-1.2384,-1.2376,-1.2368,-1.2362,-1.2349,-1.2341,-1.2336,-1.2337,-1.2331,-1.2335,-1.2339,-1.2336,-1.2337,-1.2337,-1.2337,-1.2338,-1.2335,-1.2335,-1.2335,0,-1.245,-1.2439,-1.2429,-1.2423,-1.2417,-1.2407,-1.2402,-1.2395,-1.2382,-1.2378,-1.2376,-1.2359,-1.2351,-1.2343,-1.2343,-1.2339,-1.2337,-1.2336,-1.2338,-1.2338,-1.2338,-1.2338,-1.2338,-1.2336,-1.2336,-1.2335,-1.2335,0,-1.2447,-1.244,-1.2438,-1.2425,-1.2419,-1.2413,-1.2402,-1.2398,-1.2392,-1.2384,-1.2376,-1.2367,-1.2357,-1.2354,-1.2348,-1.2345,-1.2344,-1.234,-1.2335,-1.2339,-1.2339,-1.2339,-1.2336,-1.2336,-1.2336,-1.2336,0,0,-1.2457,-1.2439,-1.2438,-1.2432,-1.2419,-1.2414,-1.2408,-1.2398,-1.2394,-1.2386,-1.238,-1.237,-1.2366,-1.236,-1.2353,-1.235,-1.2352,-1.2346,-1.2346,-1.2347,-1.2348,-1.2351,-1.2351,-1.2348,-1.2348,-1.2348,-1.2349,0,-1.2458,-1.2447,-1.2438,-1.243,-1.2423,-1.2414,-1.2409,-1.24,-1.2393,-1.2387,-1.2379,-1.2372,-1.2367,-1.2364,-1.2361,-1.2352,-1.2352,-1.2352,-1.2343,-1.2343,-1.2345,-1.2351,-1.2354,-1.2355,-1.2349,-1.2348,-1.2348,0,-1.2458,-1.245,-1.2441,-1.2429,-1.2426,-1.2421,-1.2412,-1.2405,-1.2396,-1.2391,-1.2384,-1.2377,-1.2371,-1.2368,-1.2359,-1.236,-1.2355,-1.2351,-1.2351,-1.2349,-1.2345,-1.2349,-1.2355,-1.2355,-1.2348,-1.2348,-1.2348,0,-1.2466,-1.2452,-1.2445,-1.2441,-1.2426,-1.2423,-1.2417,-1.2408,-1.2402,-1.2394,-1.2391,-1.2382,-1.2377,-1.2371,-1.2362,-1.236,-1.2354,-1.235,-1.2349,-1.235,-1.2348,-1.2348,-1.2353,-1.2346,-1.2346,-1.2346,-1.2346,0,-1.2468,-1.2463,-1.2449,-1.2444,-1.2439,-1.2428,-1.2423,-1.2416,-1.2408,-1.2402,-1.2394,-1.2389,-1.2378,-1.2371,-1.2364,-1.2358,-1.2356,-1.2352,-1.235,-1.2352,-1.2353,-1.2349,-1.2348,-1.2346,-1.2346,-1.2346,-1.2346,0,-1.2475,-1.2465,-1.2457,-1.2444,-1.2441,-1.2437,-1.2426,-1.2422,-1.2415,-1.2408,-1.2406,-1.2394,-1.2387,-1.2377,-1.2366,-1.2362,-1.2356,-1.2353,-1.2359,-1.2358,-1.2358,-1.2358,-1.236,-1.236,-1.2354,-1.2354,-1.2354,0,-1.2476,-1.2472,-1.2459,-1.2455,-1.2449,-1.2442,-1.2436,-1.2426,-1.2421,-1.241,-1.2407,-1.2399,-1.2392,-1.238,-1.2371,-1.2362,-1.2359,-1.2361,-1.2358,-1.2361,-1.2359,-1.2359,-1.2359,-1.2361,-1.2361,-1.2361,-1.2361,0,-1.248,-1.2476,-1.2468,-1.2459,-1.2453,-1.2445,-1.2437,-1.2434,-1.2423,-1.2418,-1.241,-1.2404,-1.2393,-1.2385,-1.2376,-1.237,-1.2364,-1.2363,-1.2362,-1.2364,-1.2367,-1.2365,-1.236,-1.2362,-1.2362,-1.2362,-1.2362,-1.2362,-1.2484,-1.248,-1.247,-1.2462,-1.2455,-1.2448,-1.2443,-1.2436,-1.2429,-1.2419,-1.2414,-1.2406,-1.2397,-1.2384,-1.2378,-1.2372,-1.237,-1.2369,-1.2368,-1.2368,-1.2369,-1.2369,-1.237,-1.237,-1.237,-1.237,-1.237,0,-1.2487,-1.248,-1.2473,-1.2462,-1.2456,-1.2451,-1.2442,-1.2438,-1.2431,-1.2423,-1.2416,-1.2407,-1.2399,-1.2389,-1.2381,-1.2378,-1.2375,-1.2376,-1.2376,-1.2374,-1.2371,-1.2373,-1.2378,-1.2378,-1.2378,-1.2378,-1.2378,-1.2378,-1.2488,-1.2481,-1.2475,-1.2465,-1.2458,-1.245,-1.2445,-1.2439,-1.2432,-1.2422,-1.2416,-1.241,-1.2401,-1.2392,-1.2385,-1.2383,-1.238,-1.2381,-1.2378,-1.2375,-1.2375,-1.2374,-1.2375,-1.2381,-1.2381,-1.2381,-1.2381,-1.2381]},{"header":{"parameterUnit":"m.s-1","parameterCategory":1,"la1":30.2991,"la2":30.254,"lo1":-89.0895,"lo2":-89.0444,"dx":0.0017,"dy":0.0017,"nx":28,"ny":28,"refTime":"2022-12-07T03:00:00:Z","depth":0,"parameterNumber":3,"parameterNumberName":"V-component_of_WINDS"},"data":[0,0,0,0,0,0,0,0,0,0,0,0,0,0,0,0,0,0,0,0,0,0,0,0,0,0,0,0,0,0,0,0,0,0,0,0,0,0,0,0,0,0,0,0,0,0,0,0,0,0,0,0,0,0,0,0,0,0,2.9058,2.9058,0,2.9095,2.9095,2.9095,2.9088,2.9087,2.9087,2.9086,2.9125,2.9126,2.9128,0,0,0,0,0,0,0,0,0,0,0,0,0,2.8984,2.8985,2.9058,2.9058,2.9059,2.9095,2.9095,2.9096,2.9088,2.9087,2.9087,2.9086,2.9124,2.9126,2.9128,0,0,0,0,0,0,0,0,0,0,0,0,0,2.9018,2.8986,2.9058,2.9059,2.906,2.9094,2.9095,2.9096,2.9088,2.9087,2.9086,2.9085,2.9124,2.9126,2.9128,2.9164,0,0,2.9136,2.9137,0,0,0,0,0,0,0,0,2.9016,2.9021,2.9059,2.9059,2.906,2.9086,2.9083,2.9119,2.9089,2.9078,2.9086,2.9085,2.9113,2.9116,2.9125,2.9166,2.9167,2.9136,2.9138,2.9139,2.914,0,0,0,0,0,0,0,2.9014,2.9019,2.9072,2.9059,2.906,2.9059,2.9063,2.909,2.91,2.9079,2.9078,2.9082,2.9113,2.9123,2.9126,2.9168,2.9136,2.9138,2.914,2.9141,2.9242,2.9243,0,0,0,0,0,0,2.901,2.9017,2.9071,2.9074,2.9035,2.9061,2.9065,2.9079,2.91,2.9102,2.9083,2.9082,2.9119,2.9123,2.9127,2.9172,2.9139,2.9141,2.9143,2.9241,2.9242,2.9244,0,0,0,0,0,0,2.9009,2.9015,2.907,2.9045,2.9052,2.9064,2.9078,2.908,2.909,2.9104,2.9106,2.9091,2.9118,2.9124,2.9155,2.9173,2.9142,2.9145,2.924,2.9241,2.9243,2.9261,0,0,0,0,0,0,2.9007,2.9015,2.9028,2.9046,2.9053,2.9097,2.9079,2.9081,2.9094,2.9093,2.9112,2.9114,2.9118,2.9152,2.9158,2.9176,2.9146,2.9238,2.924,2.9243,2.9259,2.9263,2.9267,0,0,0,0,0,2.9004,2.9031,2.9028,2.9035,2.907,2.9098,2.9102,2.9106,2.9095,2.9109,2.9118,2.9113,2.917,2.9155,2.9162,2.9181,2.9237,2.924,2.9242,2.9257,2.9262,2.9267,0,0,0,0,0,0,2.9015,2.9033,2.9031,2.9064,2.9079,2.9096,2.9114,2.9111,2.913,2.9128,2.9132,2.9137,2.9169,2.9178,2.9161,2.9218,2.9202,2.9206,2.9211,2.9216,2.922,2.9218,2.9149,0,0,0,0,0,2.9021,2.9042,2.9057,2.9085,2.9093,2.9102,2.9114,2.9116,2.9132,2.9139,2.915,2.9166,2.9188,2.9202,2.9223,2.926,2.9265,2.9277,2.9281,2.9284,2.9288,2.931,2.9316,2.9253,2.9253,2.9253,0,0,2.9034,2.9047,2.906,2.9087,2.9099,2.9122,2.9107,2.9131,2.9148,2.9142,2.9173,2.9182,2.9201,2.9236,2.9252,2.9245,2.9307,2.9287,2.929,2.9292,2.9314,2.932,2.9325,2.9255,2.9254,2.9254,0,0,2.907,2.9081,2.9106,2.9119,2.9138,2.9144,2.915,2.9168,2.9174,2.9205,2.9202,2.9222,2.9259,2.9273,2.9285,2.9328,2.9325,2.9335,2.9356,2.9378,2.9383,2.9387,2.9405,2.9411,2.9338,2.9338,2.9338,0,2.9084,2.9117,2.912,2.9145,2.9158,2.9154,2.918,2.9193,2.9217,2.9227,2.9218,2.9265,2.9277,2.9317,2.9328,2.9337,2.9345,2.9333,2.9382,2.9386,2.9391,2.9407,2.9414,2.934,2.9339,2.9339,2.9339,0,2.9135,2.9158,2.9176,2.92,2.9215,2.9241,2.9249,2.9264,2.9264,2.9272,2.9305,2.9319,2.9344,2.9353,2.9354,2.9393,2.9388,2.9381,2.9365,2.9398,2.9414,2.942,2.9341,2.9341,2.934,2.934,0,0,2.9179,2.9205,2.9212,2.9224,2.9244,2.9263,2.9288,2.9312,2.9326,2.9343,2.9367,2.9399,2.9392,2.9406,2.9408,2.9427,2.9463,2.9417,2.9418,2.9427,2.951,2.9517,2.9524,2.9461,2.9462,2.9463,2.9509,0,2.9218,2.9263,2.9267,2.9309,2.9331,2.9328,2.9351,2.9367,2.9375,2.9396,2.9405,2.9428,2.9417,2.9425,2.9444,2.9455,2.948,2.9451,2.9484,2.9485,2.9481,2.9532,2.9539,2.9582,2.9515,2.9516,2.9517,0,2.9269,2.9289,2.9333,2.9352,2.9362,2.9382,2.9406,2.9425,2.9444,2.9448,2.9464,2.9464,2.9493,2.9475,2.9516,2.9496,2.951,2.9517,2.9519,2.9523,2.9504,2.954,2.9596,2.9603,2.9526,2.9526,2.9525,0,2.93,2.9336,2.9368,2.9378,2.9401,2.9416,2.9426,2.9443,2.9458,2.9479,2.9489,2.9512,2.9526,2.9544,2.9552,2.9538,2.9592,2.9575,2.9599,2.9599,2.9611,2.9611,2.9672,2.9617,2.9617,2.9617,2.9617,0,2.9344,2.9371,2.9382,2.9402,2.9433,2.9437,2.9469,2.9478,2.9494,2.9517,2.9515,2.9536,2.9544,2.9567,2.9572,2.9606,2.9611,2.9617,2.9619,2.9618,2.9618,2.9629,2.9627,2.9619,2.9618,2.9618,2.9618,0,2.9383,2.9391,2.9426,2.9445,2.945,2.9473,2.949,2.9509,2.9517,2.9546,2.9553,2.9565,2.9592,2.9601,2.9634,2.9638,2.9678,2.9676,2.9672,2.9672,2.9696,2.9695,2.9768,2.9779,2.9715,2.9715,2.9716,0,2.9412,2.9433,2.9455,2.947,2.9481,2.9504,2.952,2.9525,2.9541,2.9565,2.9583,2.9609,2.9631,2.9675,2.9688,2.9713,2.9713,2.9737,2.9717,2.9716,2.9716,2.9715,2.9718,2.9741,2.9742,2.9742,2.9743,0,2.9463,2.9466,2.9488,2.9512,2.953,2.9549,2.9567,2.958,2.9588,2.9607,2.9635,2.9652,2.9685,2.9713,2.9739,2.9751,2.9749,2.9749,2.9756,2.9757,2.9754,2.9758,2.9684,2.9747,2.9747,2.9747,2.9746,2.9746,2.9499,2.9519,2.9537,2.9562,2.9577,2.9594,2.9614,2.9625,2.9648,2.9676,2.9678,2.9708,2.9728,2.9763,2.9776,2.9801,2.9795,2.9804,2.9807,2.981,2.9813,2.9749,2.9806,2.9806,2.9806,2.9805,2.9805,0,2.9552,2.9564,2.9587,2.9613,2.9633,2.9628,2.9649,2.9667,2.9693,2.9712,2.9733,2.9766,2.9793,2.9808,2.9836,2.9853,2.9853,2.986,2.986,2.9863,2.9816,2.9808,2.986,2.986,2.986,2.9859,2.9859,2.9859,2.9582,2.9615,2.9621,2.9662,2.9674,2.9704,2.9716,2.9733,2.9748,2.9784,2.9807,2.9816,2.9834,2.9863,2.9888,2.9892,2.9903,2.9911,2.9915,2.9871,2.9866,2.9861,2.9853,2.9913,2.9913,2.9959,2.996,2.996]}]]